Regional Weather Roundup
Issued by NWS

Home | Current Version | Previous Version | Graphics & Text | Print | Product List | Glossary On
Versions: 1 2 3 4 5 6 7 8 9 10 11 12 13 14 15 16 17 18 19 20 21 22 23 24 25 26 27 28 29 30 31 32 33 34 35 36 37 38 39 40 41 42 43 44 45 46 47 48 49 50
000
ASUS43 KDTX 271301
RWRMI
MICHIGAN HOURLY REGIONAL WEATHER ROUNDUP
NATIONAL WEATHER SERVICE DETROIT/PONTIAC MI
900 AM EDT SAT MAY 27 2017

NOTE: "FAIR" INDICATES FEW OR NO CLOUDS BELOW 12,000 FEET WITH NO
SIGNIFICANT WEATHER AND/OR OBSTRUCTION TO VISIBILITY.

MIZ047>049-052>055-059>063-066>070-074>076-081>083-271400-
SOUTHEAST LOWER MICHIGAN

CITY           SKY/WX    TMP DP  RH WIND       PRES   REMARKS
ADRIAN         PTSUNNY   62  60  93 E7        29.90S FOG
ALMA           SUNNY     62  58  87 CALM      29.90S
ANN ARBOR      MOSUNNY   63  59  87 E5        29.89S
BAD AXE        SUNNY     60  56  85 SE5       29.92S
CARO           SUNNY     63  56  80 CALM      29.90S
DETROIT CITY   SUNNY     64  57  78 VRB3      29.91R
DETROIT        MOSUNNY   65  58  78 E3        29.91R
FLINT          SUNNY     63  55  75 S3        29.90S
GROSSE ILE     SUNNY     64  58  81 CALM      29.90R
HILLSDALE      PTSUNNY   63  57  82 SE3       29.89R
HOWELL         SUNNY     64  55  71 SE3       29.90S

CITY           SKY/WX    TMP DP  RH WIND       PRES   REMARKS
JACKSON        SUNNY     65  57  75 E5        29.89S
LAMBERTVILLE   PTSUNNY   64  61  90 NE5       29.89R
LANSING        SUNNY     66  53  63 CALM      29.90S
LAPEER         FAIR      61  56  84 CALM      29.90S
MASON          SUNNY     63  57  82 CALM      29.90S
MONROE         MOSUNNY   64  60  87 NE3       29.89S
MT. CLEMENS    MOSUNNY   61  59  94 E5        29.89S
PONTIAC        MOSUNNY   63  55  75 S7        29.89S
PORT HOPE        N/A     55  53  93 E9        29.91R
PORT HURON     SUNNY     59  55  88 E5        29.91S
TRI CITIES     SUNNY     64  57  78 CALM      29.90R
MIDLAND        FAIR      63  55  74 CALM      29.89S
TROY           SUNNY     64  54  71 CALM      29.92S
SAGINAW HB     SUNNY     63  52  67 CALM      29.89S
$$
MIZ043>046-050>051-056>058-064>065-071>073-077>080-271400-
SOUTHWEST LOWER MICHIGAN

CITY           SKY/WX    TMP DP  RH WIND       PRES   REMARKS
BATTLE CREEK   SUNNY     64  58  80 CALM      29.90R
BENTON HARBOR    N/A     60  58  92 NW3       29.91R
BIG RAPIDS     SUNNY     60  54  79 CALM      29.91R
COLDWATER      SUNNY     64  62  94 E6        29.89S
FREMONT        FAIR      60  54  78 N3        29.92R
HOLLAND        SUNNY     64  56  75 CALM      29.92R
GRAND RAPIDS   MOSUNNY   65  59  81 NE3       29.90R
IONIA          FAIR      65  56  74 CALM      29.89S
KALAMAZOO      PTSUNNY   63  59  87 CALM      29.90R
LUDINGTON      SUNNY     59  54  83 CALM      29.92R
MARSHALL       SUNNY     64  59  83 E3        29.89S
MOUNT PLEASANT SUNNY     59  55  86 CALM      29.90R
MUSKEGON       MOSUNNY   62  55  77 E3        29.92R
SOUTH HAVEN    SUNNY     61  60  96 CALM      29.91R
$$
MIZ016>042-271400-
NORTHERN LOWER MICHIGAN

CITY           SKY/WX    TMP DP  RH WIND       PRES   REMARKS
ALPENA         SUNNY     60  54  80 CALM      29.92R
BEAVER ISLAND  CLOUDY    62  53  70 SW5       29.91R
BELLAIRE       CLOUDY    56  52  86 CALM      29.92S
CADILLAC       SUNNY     62  54  74 N3        29.91S
CHARLEVOIX     CLOUDY    55  53  92 CALM      29.94R
FRANKFORT      CLOUDY    58  51  78 CALM      29.92R
GAYLORD        CLOUDY    62  53  72 W3        29.92R
GRAYLING       PTSUNNY   61  54  77 CALM      29.94R
HARBOR SPRINGS CLOUDY    54  53  97 CALM      29.92R
HOUGHTON LAKE  PTSUNNY   61  55  81 CALM      29.92S
MANISTEE       SUNNY     60  53  77 CALM      29.92R
OSCODA         SUNNY     59  54  83 CALM      29.92R
PELLSTON       CLOUDY    59  51  75 CALM      29.92R
ROGERS CITY    MOSUNNY   60  54  81 NE3       29.92R
TRAVERSE CITY  PTSUNNY   62  53  72 CALM      29.90R
$$
MIZ007>008-015-271400-
EASTERN UPPER MICHIGAN

CITY           SKY/WX    TMP DP  RH WIND       PRES   REMARKS
KINROSS        CLOUDY    60  51  72 CALM      29.91R
MACKINAC ISLAN CLOUDY    57  52  85 CALM      29.91F HAZE
NEWBERRY       MOSUNNY   58  52  82 S3        29.89S
S. S. MARIE    PTSUNNY   58  53  84 CALM      29.90R
MUNISING         N/A     61  54  77 S8        29.85F
$$
MIZ004>006-011>014-085-271400-
CENTRAL UPPER MICHIGAN

CITY           SKY/WX    TMP DP  RH WIND       PRES   REMARKS
MANISTIQUE     MOSUNNY   50  47  89 S6        29.89R
ESCANABA       SUNNY     58  53  84 S7        29.87F
MENOMINEE      MOSUNNY   60  55  83 SW6       29.88F
SAWYER-GWINN   MOSUNNY   57  55  94 S6        29.86F
$$
MIZ001>003-009>011-084-271400-
WESTERN UPPER MICHIGAN

CITY           SKY/WX    TMP DP  RH WIND       PRES   REMARKS
IRON MOUNTAIN  SUNNY     63  55  75 CALM      29.85S
HOUGHTON       CLOUDY    63  56  78 W9        29.80F
COPPER HARBOR    N/A     64  56  75 SW8       29.79F
IRONWOOD       SUNNY     62  56  80 W7        29.83S
$$

ABBREVIATIONS USED IN REMARKS
   TC - TEMPERATURE IN CELSIUS
  WCI - WIND CHILL INDEX
   HX - HEAT INDEX
  VSB - VISIBILITY





USA.gov is the U.S. government's official web portal to all federal, state and local government web resources and services.